Fort Campbell, TN

9:34 PM CST on February 12, 2016 (GMT -0600)
Outlaw

Weather History for KCKV - September, 2013

Change the Weather History Date:

Thursday, September 12, 2013

  Actual Average Record
Temperature  
Mean Temperature 79 °F -  
Max Temperature 90 °F - 94 °F (1991)
Min Temperature 68 °F - 43 °F (1976)
Degree Days  
Heating Degree Days 0    
Month to date heating degree days 0  
Since 1 July heating degree days 0  
Cooling Degree Days 14    
Month to date cooling degree days 140  
Growing Degree Days 28 (Base 50)    
Moisture  
Dew Point 70 °F    
Average Humidity 80    
Maximum Humidity 100    
Minimum Humidity 59    
Precipitation  
Precipitation 0.47 in - 1.08 in (1975)
Month to date precipitation 1.32  
Sea Level Pressure  
Sea Level Pressure 30.01 in    
Wind  
Wind Speed 4 mph (WNW)    
Max Wind Speed 21 mph    
Max Gust Speed 31 mph    
Visibility 5 miles    
Events Fog , Rain , Thunderstorm    
T = Trace of Precipitation, MM = Missing Value Source: NWS Daily Summary

Daily Weather History Graph

Daily Weather History Graph

Search for Another Location

Airport or City:

Trip Planner

Search our weather history database for the weather conditions in past years. The results will help you decide how hot, cold, wet, or windy it might be!

Date:

Astronomy

Sep. 12, 2013 Rise Set
Actual Time 6:29 AM CDT 7:01 PM CDT
Civil Twilight 6:03 AM CDT 7:27 PM CDT
Nautical Twilight 5:33 AM CDT 7:57 PM CDT
Astronomical Twilight 5:01 AM CDT 8:28 PM CDT
Moon 1:46 PM CDT (9/12) No Moon Set
Length of Visible Light 13h 23m
Length of Day
12h 31m
Waxing Crescent, 50% of the Moon is Illuminated
Sep 12
Waxing Crescent
Sep 12
First Quarter
Sep 19
Full
Sep 26
Last Quarter
Oct 4
New

Hourly Weather History & Observations

Time (CDT) Temp. Heat Index Dew Point Humidity Pressure Visibility Wind Dir Wind Speed Gust Speed Precip Events Conditions
12:47 AM 69.8 °F - 68.0 °F 94% 30.07 in 1.8 mi Calm Calm - N/A   Clear
12:52 AM 70.0 °F - 68.0 °F 93% 30.05 in 1.0 mi Calm Calm - N/A   Clear
1:00 AM 69.8 °F - 68.0 °F 94% 30.07 in 0.5 mi Calm Calm - N/A Fog Fog
1:12 AM 69.8 °F - 68.0 °F 94% 30.07 in 1.0 mi Calm Calm - N/A   Clear
1:28 AM 69.8 °F - 68.0 °F 94% 30.07 in 0.2 mi Calm Calm - N/A Fog Fog
1:52 AM 69.1 °F - 68.0 °F 96% 30.05 in 0.5 mi Calm Calm - N/A Fog Fog
2:20 AM 69.8 °F - 69.8 °F 100% 30.07 in 1.2 mi Calm Calm - N/A   Scattered Clouds
2:23 AM 69.8 °F - 69.8 °F 100% 30.07 in 3.0 mi Calm Calm - N/A   Scattered Clouds
2:50 AM 69.8 °F - 69.8 °F 100% 30.07 in 2.0 mi Calm Calm - N/A   Clear
2:52 AM 70.0 °F - 69.1 °F 97% 30.05 in 2.0 mi Calm Calm - N/A   Clear
3:06 AM 69.8 °F - 69.8 °F 100% 30.07 in 3.0 mi Calm Calm - N/A   Clear
3:52 AM 71.1 °F - 69.1 °F 93% 30.04 in 3.0 mi Calm Calm - N/A   Clear
4:52 AM 70.0 °F - 69.1 °F 97% 30.04 in 4.0 mi Calm Calm - N/A   Clear
5:05 AM 71.6 °F - 69.8 °F 94% 30.05 in 2.5 mi Calm Calm - N/A   Clear
5:24 AM 71.6 °F - 69.8 °F 94% 30.05 in 4.0 mi Calm Calm - N/A   Clear
5:52 AM 70.0 °F - 69.1 °F 97% 30.04 in 3.0 mi Calm Calm - N/A   Clear
6:34 AM 69.8 °F - 69.8 °F 100% 30.06 in 2.0 mi Calm Calm - N/A   Clear
6:52 AM 71.1 °F - 70.0 °F 96% 30.05 in 2.5 mi Calm Calm - N/A   Clear
7:08 AM 71.6 °F - 69.8 °F 94% 30.06 in 3.0 mi Calm Calm - N/A   Clear
7:52 AM 73.9 °F - 72.0 °F 93% 30.05 in 3.0 mi Calm Calm - N/A   Mostly Cloudy
8:52 AM 77.0 °F - 72.0 °F 84% 30.06 in 7.0 mi WSW 4.6 mph - N/A   Mostly Cloudy
9:52 AM 81.0 °F 85.2 °F 72.0 °F 74% 30.05 in 9.0 mi West 6.9 mph - N/A   Clear
10:52 AM 84.9 °F 91.4 °F 73.0 °F 67% 30.04 in 10.0 mi West 6.9 mph - N/A   Partly Cloudy
11:52 AM 87.1 °F 94.5 °F 73.0 °F 63% 30.02 in 10.0 mi WNW 10.4 mph 16.1 mph N/A   Mostly Cloudy
12:52 PM 88.0 °F 94.7 °F 72.0 °F 59% 30.00 in 9.0 mi WNW 9.2 mph - N/A   Scattered Clouds
1:43 PM 89.6 °F 96.2 °F 71.6 °F 55% 30.00 in 7.0 mi WNW 11.5 mph - N/A Thunderstorm Scattered Clouds
1:52 PM 87.1 °F 93.6 °F 72.0 °F 61% 29.98 in 7.0 mi NNW 11.5 mph - N/A Thunderstorm Scattered Clouds
2:00 PM 86.0 °F 91.8 °F 71.6 °F 62% 29.99 in 7.0 mi NNW 11.5 mph - N/A   Scattered Clouds
2:32 PM 84.2 °F 89.6 °F 71.6 °F 66% 29.96 in 7.0 mi NW 12.7 mph - N/A Thunderstorm Clear
2:52 PM 86.0 °F 91.5 °F 71.1 °F 61% 29.95 in 8.0 mi NW 10.4 mph - N/A Thunderstorm Mostly Cloudy
3:52 PM 78.1 °F - 69.1 °F 74% 29.95 in 10.0 mi WSW 9.2 mph - N/A Thunderstorm Overcast
4:10 PM 82.4 °F 86.3 °F 69.8 °F 66% 29.96 in 10.0 mi Variable 6.9 mph - N/A   Scattered Clouds
4:52 PM 84.0 °F 87.8 °F 69.1 °F 61% 29.93 in 10.0 mi WSW 5.8 mph - N/A   Clear
5:39 PM 82.4 °F 87.2 °F 71.6 °F 70% 29.94 in 10.0 mi WSW 5.8 mph - N/A Thunderstorm Partly Cloudy
5:52 PM 82.9 °F 87.5 °F 71.1 °F 67% 29.93 in 10.0 mi West 4.6 mph - N/A Thunderstorm Thunderstorm
6:06 PM 75.2 °F - 66.2 °F 73% 29.96 in 1.8 mi NNW 17.3 mph 31.1 mph 0.07 in Rain , Thunderstorm Thunderstorms and Rain
6:14 PM 73.4 °F - 69.8 °F 88% 29.94 in 0.2 mi Calm Calm - 0.26 in Fog , Rain , Thunderstorm Heavy Thunderstorms and Rain
6:20 PM 73.4 °F - 69.8 °F 88% 29.94 in 1.5 mi Calm Calm - 0.26 in Rain Light Rain
6:27 PM 73.4 °F - 71.6 °F 94% 29.94 in 10.0 mi WNW 4.6 mph - 0.26 in   Mostly Cloudy
6:52 PM 73.9 °F - 72.0 °F 93% 29.92 in 9.0 mi South 4.6 mph - 0.26 in   Scattered Clouds
7:52 PM 75.0 °F - 72.0 °F 90% 29.94 in 9.0 mi Calm Calm - N/A   Scattered Clouds
8:19 PM 71.6 °F - 69.8 °F 94% 29.97 in 1.5 mi WNW 16.1 mph 26.5 mph 0.19 in Rain Heavy Rain
8:29 PM 73.4 °F - 69.8 °F 88% 29.98 in 3.0 mi North 5.8 mph - 0.20 in Rain Light Rain
8:52 PM 72.0 °F - 69.1 °F 91% 29.96 in 10.0 mi NW 3.5 mph - 0.20 in   Scattered Clouds
9:52 PM 70.0 °F - 69.1 °F 97% 29.97 in 1.8 mi Calm Calm - N/A   Clear
9:54 PM 69.8 °F - 69.8 °F 100% 29.98 in 3.0 mi WSW 3.5 mph - N/A   Clear
10:52 PM 69.1 °F - 68.0 °F 96% 29.97 in 5.0 mi Calm Calm - N/A   Clear
11:29 PM 69.8 °F - 68.0 °F 94% 29.99 in 1.8 mi Calm Calm - 0.01 in   Clear
11:43 PM 68.0 °F - 66.2 °F 94% 29.99 in 3.0 mi NNW 3.5 mph - 0.01 in   Clear
11:52 PM 69.1 °F - 66.9 °F 93% 29.97 in 6.0 mi NNW 3.5 mph - 0.01 in   Clear